DELTA 1 DEB

Satellite information

Favourite Embed

Satellite Type and Status

DEBRISIN ORBIT

Key statistics

Satellite DELTA 1 DEB at a glance.

Uptime

18352

Days in orbit

Revolutions

≈ 13.6

Per day

Orbit

SSO

Sun Synchronous Orbit

Inclination

99.8

Latest

Satellite identification and parameters

Extended collection of information and parameters for DELTA 1 DEB.

Object identification

Identified? True

Debris? True

Object name: DELTA 1 DEB

International designator: 1975-052HM

Object number (NORAD): 21567

Object ID (CCSDS): 21567

Country: UNITED STATES OF AMERICA (US)

Current information (Y/N): Y

RCS size: SMALL

Orbital parameters

Period: 105.723 minutes

Inclination: 99.83 deg

SMA: 7406.369 km

Apoapsis: 1209.793 km

Periapsis: 846.676 km

RAAN: 50.4107 deg

Eccentricy: 0.02451381

Argument of periapsis: 226.4965 deg

Mean anomaly: 161.0063 deg

Mean motion: 13.62055238 rev/day

Mean motion (dot): 0.00001297 rev/day2

B* drag term: 0.0014253287 1/REarth

Two-line elements (TLE)

Creation date: Sept. 8, 2025, 3:16 a.m.

Reference frame: TEME

Reference center: EARTH

Epoch: Sept. 7, 2025, 9:52 a.m. UTC

TLE line 0: 0 DELTA 1 DEB

TLE line 1: 1 21567U 75052HM 25250.41179442 .00001297 00000-0 14253-2 0 9992

TLE line 2: 2 21567 99.8300 50.4107 0245138 226.4965 161.0063 13.62055238697617

Live tracking on map

Real-time ground track for satellite DELTA 1 DEB.

In-orbit conjunctions

A list of the most updated potential collisions computed for object DELTA 1 DEB.

Target Orbit TCA Probability of collision Miss distance Type
SL-8 R/B LEO 2025-01-04 05:59:26 0.0003432491 279.0 (m) ROCKET BODY
THORAD AGENA D DEB SSO 2024-10-01 21:13:41 0.0002095462 110.0 (m) DEBRIS

Associated space launch

Experimental meteorological satellite

DELTA 1 DEB was lifted into orbit during the mission ‘Delta 2910 | Nimbus 6’, on board a Delta 2910 space rocket.

The launch took place on June 12, 1975, 8:12 a.m. from Space Launch Complex 2W.

For more information about the launch, click the button.

Launch to space Delta 2910 | Nimbus 6
Delta 2910 | Nimbus 6

Agency: N/A

Status: Launch Successful

Launch date: June 12, 1975, 8:12 a.m. UTC

Rocket: Delta 2910

Launch pad: Space Launch Complex 2W

Location: Vandenberg SFB, CA, USA

...

Latest news about this satellite

There are no fresh news available about this satellite. Check back as we update our databases every day.


Newsletter sign-up

Weekly statistics, charts and insights to help you stay on top of the space industry.